Terug naar catalogus

STARLINK-4663

ActiefCommunicatieVLEO
NORAD 53724·PAYLOAD·🇺🇸 United States

Gelanceerd Sep 5, 2022 vanaf Cape Canaveral Space Force Station

Loading…

Volgende Passages (komende 24 uur)

TLE

VersSource: CelesTrak SupGP

Epoch: Sep 15, 2026, 02:12 UTC

1 53724C 22107AA  26258.09215278  .00029840  00000+0  85377-3 0  2583
2 53724  53.1566 109.5205 0001203  80.5932 232.8495 15.35382337    18

Volg STARLINK-4663 in realtime met AllMySat

Download on the App Store